This is the latest recevied weather packets stored in our database for station/object 7L2IWN-13. If no packets are shown the sender has not sent any weather packets the latest 10 day(s).
| Time | Temp. | Humidity | Pressure | Rain* | Wind** | Luminosity | Snow |
|---|---|---|---|---|---|---|---|
| 1777522221 | 12.22° C | 84% | 1019.8 hPa | 0 mm | - | - | - |
| 1777521501 | 11.67° C | 85% | 1019.9 hPa | 0 mm | - | - | - |
| 1777520780 | 12.22° C | 85% | 1019.9 hPa | 0 mm | - | - | - |
| 1777520060 | 11.67° C | 86% | 1020.2 hPa | 0 mm | - | - | - |
| 1777519339 | 12.22° C | 87% | 1020 hPa | 0 mm | - | - | - |
| 1777517900 | 12.22° C | 84% | 1020.2 hPa | 0 mm | - | - | - |
| 1777517180 | 12.22° C | 79% | 1020.2 hPa | 0 mm | - | - | - |
| 1777516461 | 12.22° C | 76% | 1020.3 hPa | 0 mm | - | - | - |
| 1777515740 | 12.22° C | 76% | 1020.5 hPa | 0 mm | - | - | - |
| 1777515020 | 12.22° C | 78% | 1020.5 hPa | 0 mm | - | - | - |
| 1777514300 | 12.22° C | 80% | 1020.6 hPa | 0 mm | - | - | - |
| 1777513581 | 12.22° C | 82% | 1020.6 hPa | 0 mm | - | - | - |
| 1777512860 | 12.22° C | 82% | 1020.6 hPa | 0 mm | - | - | - |
| 1777512140 | 13.33° C | 87% | 1020.6 hPa | 0 mm | - | - | - |
| 1777511421 | 13.33° C | 88% | 1020.2 hPa | 0 mm | - | - | - |
| 1777509981 | 13.33° C | 80% | 1020.1 hPa | 0 mm | - | - | - |
| 1777509262 | 12.78° C | 81% | 1020.2 hPa | 0 mm | - | - | - |
| 1777507823 | 12.78° C | 84% | 1019.9 hPa | 0 mm | - | - | - |
| 1777504942 | 12.78° C | 88% | 1019.5 hPa | 0 mm | - | - | - |
| 1777503500 | 12.78° C | 91% | 1019.3 hPa | 0 mm | - | - | - |
| 1777501341 | 11.67° C | 94% | 1019.3 hPa | 0 mm | - | - | - |
| 1777499901 | 11.67° C | 97% | 1019.2 hPa | 0 mm | - | - | - |
| 1777497741 | 11.11° C | 99% | 1019 hPa | 0 mm | - | - | - |
| 1777496304 | 11.11° C | 99% | 1018.8 hPa | 0 mm | - | - | - |
| 1777494861 | 11.11° C | 99% | 1018.4 hPa | 0 mm | - | - | - |
* Rain latest hour (hover to see other rain measurements)
** Current wind speed in m/s (hover to see current wind gust speed)